STARLINK-4087, 53156

Orbit data source: Space-Track

STARLINK-4087, 53156 is a payload satellite owned by SpaceX/Seattle (US) in LEO that was launched on Sun, 17 Jul 2022 UTC via an FALCON 9 launch vehicle from the Air Force Eastern Test Range (AFETR). Payload-class satellites include a variety of spacecraft equipped with specific instruments for various scientific and technological missions. These include communications satellites like Starlink; space stations such as the ISS; scientific satellites like the Hubble; Earth observation satellites from companies like Planet Labs, Umbra, and HawkEye 360; GPS; miniature CubeSats for education and research; and military/defense satellites.

Loading next visibility...
Identifier
53156, 2022-083AA
Orbit
LEO
Country
Flag of USUS
Related business
Manufacturer
SpaceX/Seattle
Mission
Operational Commercial Communications
Bus & Motor
STARLINK, Unknown motor
Mass
297 kg wet, ~275 kg dry
Launch date (UTC)
2022-07-17 (4 years ago)
Launch vehicle
FALCON 9
Launch site
Air Force Eastern Test Range (AFETR)
Object type
Payload
Rocket body
Debris
Shape & HBR
Box + 1 Pan, 10.1 m
Radar Cross Section
13.562 m², Large (>1 m²)

Expand to show TLE details & history
Last TLE update: 3 days ago

TLE from 3 days ago
0 STARLINK-4087
1 53156U 22083AA  26170.92080185  .00000117  00000-0  25476-4 0  9991
2 53156  53.1619  64.9505 0001527 112.2894 247.8260 15.08833232216797
Epoch: 2026-06-19T22:05Z
TLE epoch observation values (Epoch: 2026-06-19T22:05:57.279Z)
Latitude
Longitude
-174.68101°
Altitude
541.054 km
Speed
7.593 km/s
True Right ascension
04h 19m 48s
True Declination
0° 00' 00"
Sunlit
Object was in daylight at epoch
Visualization orbit readout
Latitude
Unknown
Longitude
Unknown
Altitude
Unknown
Speed
Unknown
Apparent Right ascension
Unknown
Apparent Declination
Unknown
Sunlit
N/A
Visualization observer readout
Local Sidereal Time
21:29:03
Azimuth
Unknown
Elevation
Unknown
Doppler factor
Unknown
Orbital elements
Apogee altitude
541.074 km
Perigee altitude
538.961 km
Semi-major axis
6,918.155 km
Eccentricity
0.00015
Inclination
53.1619°
RAAN
64.9505°
Arg. of periapsis
112.2894°
True anomaly
247.8098°
Mean anomaly
247.826°
Eccentric anomaly
247.8179°
Mean motion
3.77188 °/min
Orbital period
95.44 mins
BSTAR
0.000025476
Loading maneuver chart data...
Computing Atmospheric mass density...
Loading historical data...
Loading historical data...
Loading historical data...
Loading historical data...
Loading historical data...
Loading historical data...
Loading historical data...

Documentation

Showing up to 5 results
|